Notices

What's New in latest Release from April 7th, 2021:

- Updated Glossary, including Speed of Maximum Gust, and Total Hourly Precipitation

- Updated national and regional climate services offices contacts and prices information

- Addition of station inventory lists for 1981-2010, 1971-2000, and 1961-1990 Normals.

If you haven't already, please take our survey and provide feedback about our website: https://eccc.sondage-survey.ca/f/LanguageSelection.aspx?s=442ca660-fcf1-47c0-95a9-59707d6fd709

Hourly Data Report for December 01, 2020

FORT GOOD HOPE CS
NORTHWEST TERRITORIES
Current Station Operator: ECCC - MSC

66°14'32.044" N
128°38'39.081" W
81.70 m
2201450
71491
ZGH

Download Data

Hourly Data (December 2020)
Hourly Data Report for December 1, 2020
TIME
LST
Temp Definition
°C
Dew Point Definition
°C
Rel Hum Definition
%
Precip. Amount Definition
mm

Wind Dir Definition
10's deg

Wind Spd Definition
km/h
Visibility Definition
km
Stn Press Definition
kPa
Hmdx Definition


Wind Chill Definition


Weather Definition


00:00 -23.8 -26.4 79 0.0 8 8   99.48   -31 LegendNANA
01:00 -24.7 -27.5 77 0.0 8 6   99.37   -30 LegendNANA
02:00 -25.4 -28.3 77 0.0 10 4   99.26   -29 LegendNANA
03:00 -24.1 -26.9 78 0.0 11 3   99.09   -27 LegendNANA
04:00 -22.4 -25.0 79 0.0 9 6   98.92   -28 LegendNANA
05:00 -20.0 -22.4 81 0.0 9 6   98.64   -25 LegendNANA
06:00 -18.4 -20.7 82 0.0 8 4   98.41   -22 LegendNANA
07:00 -17.8 -20.0 83 0.0 8 5   98.23   -22 LegendNANA
08:00 -16.0 -18.1 84 0.0 2 5   98.13   -20 LegendNANA
09:00 -14.0 -15.8 86 0.0 5 3   97.99   -16 LegendNANA
10:00 -13.2 -15.0 86 0.0 5 4   97.95   -16 LegendNANA
11:00 -13.2 -15.0 86 0.0 7 6   97.95   -17 LegendNANA
12:00 -13.2 -15.0 86 0.0 8 7   97.95   -18 LegendNANA
13:00 -13.8 -15.8 85 0.0 34 4   98.10   -17 LegendNANA
14:00 -13.5 -15.5 85 0.0 6 4   98.16   -16 LegendNANA
15:00 -14.4 -16.2 85 0.0 14 1   98.27   -15 LegendNANA
16:00 -17.0 -19.1 84 0.0 18 2   98.36   -19 LegendNANA
17:00 -16.4 -18.1 87 0.0 17 5   98.40   -20 LegendNANA
18:00 -17.3 -19.4 83 0.0 18 6   98.49   -22 LegendNANA
19:00 -18.3 -20.5 83 0.0 7 4   98.49   -22 LegendNANA
20:00 -18.5 -20.4 85 0.0 13 4   98.52   -22 LegendNANA
21:00 -17.6 -19.7 84 0.0 6 2   98.57   -19 LegendNANA
22:00 -18.7 -20.8 83 0.0 3 3   98.60   -21 LegendNANA
23:00 -16.8 -18.8 85 0.0 9 6   98.57   -21 LegendNANA

Notes on Data Quality.

Legend

  • E = Estimated
  • M = Missing
  • NA = Not Available*
  • [empty] = Indicates an unobserved value
Date modified: